Location: Bouchavesnes-Bergen
(49.9859°N, 2.9203°E)
Time: 22:54:28
(UTC+00:00)

CZ-4B R/B - Pass Details

Date: 09 March 2021
Orbit: 702 x 803 km, 98.9° (Epoch: 13 April)

Event Time Altitude Azimuth Distance (km) Brightness Sun altitude
Rises 03:10:22 0° 13° (NNE) 3,283 7.4 -29.3°
Reaches altitude 10° 03:12:44 10° 11° (N) 2,337 6.5 -29.0°
Enters shadow 03:16:37 49° 349° (N) 982 4.1 -28.4°
